Terug naar catalogus

STARLINK-37081

ActiefCommunicatieSSO
NORAD 68229·PAYLOAD·🇺🇸 United States

Gelanceerd Mar 17, 2026 vanaf Vandenberg Space Force Base

Loading…

Volgende Passages (komende 24 uur)

TLE

VersSource: CelesTrak SupGP

Epoch: Sep 15, 2026, 03:51 UTC

1 68229C 26053Y   26258.16090278  .00022318  00000+0  69257-3 0  2584
2 68229  97.2846 135.0328 0002020  95.3627 255.3469 15.33437679    16

Volg STARLINK-37081 in realtime met AllMySat

Download on the App Store